Simultaneous Nadir Overpasses (SNOs) Predictions

Prediction of SNOs between NOAA-15 and METOP-C Satellite Orbit:

Table of predicted SNOs for the next 14.0 days since TLE Epoch: 9/3/2022
Index Date (NOAA-15) Time (NOAA-15) Lat,Lon (NOAA-15) SZA (NOAA-15 ) Date (METOP-C) Time (METOP-C) Lat,Lon (METOP-C) SZA (METOP-C ) Distance(km) Time Diff (sec)
1 09/04/2022 15:30:02 81.08, -14.38 75.99 09/04/2022 15:28:52 81.08, -14.24 75.98 2.56 70
2 09/04/2022 16:20:34 -81.07, 153.01 104.00 09/04/2022 16:19:32 -81.08, 153.05 104.02 1.12 62
3 09/04/2022 17:11:04 81.08, -39.76 76.00 09/04/2022 17:10:14 81.08, -39.76 75.98 0.46 50
4 09/04/2022 18:01:36 -81.08, 127.63 103.99 09/04/2022 18:00:54 -81.08, 127.54 104.02 1.69 42
5 09/04/2022 18:52:05 81.07, -64.77 76.05 09/04/2022 18:51:35 81.08, -64.90 76.03 2.68 30
6 09/04/2022 19:42:38 -81.08, 102.26 103.97 09/04/2022 19:42:15 -81.08, 102.40 103.96 2.42 23
7 09/04/2022 20:33:08 81.09, -90.53 76.04 09/04/2022 20:32:57 81.08, -90.41 76.04 2.51 11
8 09/04/2022 21:23:40 -81.09, 76.88 103.95 09/04/2022 21:23:37 -81.08, 76.89 103.96 1.46 3
9 09/04/2022 22:14:09 81.08,-115.54 76.08 09/04/2022 22:14:18 81.09,-115.55 76.09 0.60 9
10 09/04/2022 23:04:41 -81.08, 51.88 103.91 09/04/2022 23:04:58 -81.08, 51.74 103.91 2.35 17
11 09/04/2022 23:55:11 81.09,-140.92 76.10 09/04/2022 23:55:40 81.08,-141.06 76.09 2.66 29
12 09/05/2022 00:45:43 -81.08, 26.50 103.89 09/05/2022 00:46:19 -81.09, 26.60 103.86 1.99 36
13 09/05/2022 01:36:13 81.09,-166.30 76.12 09/05/2022 01:37:01 81.09,-166.21 76.15 1.71 48
14 09/05/2022 02:26:45 -81.09, 1.13 103.87 09/05/2022 02:27:41 -81.09, 1.09 103.85 0.70 56
15 09/05/2022 03:17:14 81.08, 168.69 76.16 09/05/2022 03:18:22 81.09, 168.65 76.20 1.64 68



Historial Predications of SNOs between NOAA-15 and METOP-C
